Theta_e
316 318 326 324 325 325 325 325 327 328 329 330 331 334 335 337 346 350 338 337 343 331 325 321 318 317 316 315 314 318 328 337 341 344 346 346 344 341 340 338 332 322 318 316 315 313 315 318 317
321 322 324 324 326 326 327 326 327 328 332 333 336 336 338 340 343 344 339 338 343 329 326 322 318 318 316 315 314 317 323 333 340 342 344 344 341 339 336 331 320 316 315 313 315 319 320 322 320
323 326 326 322 324 327 326 328 327 329 337 338 338 338 340 341 342 342 337 338 345 335 327 324 319 318 317 315 314 314 317 325 334 337 340 341 337 337 332 321 316 314 313 318 323 325 324 327 330
330 329 324 322 324 325 326 327 328 330 335 337 338 339 339 340 341 340 337 337 345 345 334 327 321 318 317 316 314 314 315 320 326 331 336 336 331 329 322 316 315 312 317 329 328 328 328 332 333
330 326 323 322 322 325 326 327 327 331 334 334 336 340 339 339 340 338 338 338 343 346 345 335 320 318 317 316 314 314 314 315 320 324 327 329 324 320 316 314 312 313 321 328 332 328 329 330 333
328 326 326 325 324 324 325 326 327 329 333 337 337 339 339 338 338 337 338 338 340 343 344 341 334 317 317 316 315 314 314 314 315 317 319 318 317 315 314 313 312 313 318 327 330 328 328 329 330
332 328 325 323 322 324 324 325 325 327 328 333 336 338 338 338 337 339 336 337 338 341 344 343 339 326 317 317 316 314 314 314 314 314 315 315 315 314 313 313 313 314 317 325 329 329 329 329 330
329 330 330 328 327 324 324 324 325 326 326 330 334 335 337 340 338 337 335 336 338 342 343 346 344 339 321 317 316 315 314 314 314 314 314 314 314 313 313 314 314 315 317 323 327 329 331 331 332
326 331 333 330 329 329 327 326 326 325 325 326 329 331 336 339 338 336 335 336 337 341 347 352 353 348 338 331 323 317 315 314 314 315 315 314 315 316 316 315 316 316 317 322 326 330 333 333 334
326 330 331 330 329 329 328 327 326 325 325 327 329 331 335 337 338 338 337 337 337 340 342 343 349 350 343 340 340 334 319 317 315 316 318 317 318 325 328 328 323 325 320 321 324 329 333 335 338
325 329 330 330 329 329 328 328 327 325 325 326 329 331 335 335 340 340 337 337 338 338 340 343 345 347 347 344 341 340 338 334 330 329 328 332 328 329 333 333 332 328 327 326 328 331 335 339 338
323 325 327 329 330 330 330 329 328 327 326 326 327 331 335 335 337 339 339 338 338 338 340 347 345 346 347 347 344 343 345 345 342 339 335 335 337 335 332 333 335 332 331 330 333 334 338 337 338
318 321 324 326 327 328 328 330 330 328 327 327 327 328 330 337 336 336 338 338 336 337 339 339 348 348 347 346 349 344 345 347 345 344 343 339 338 337 336 335 335 337 333 335 332 337 336 338 338
319 319 319 320 323 326 328 328 330 330 330 329 328 328 328 335 335 335 335 336 336 336 336 336 347 346 347 344 347 350 345 346 346 347 345 344 341 341 338 337 338 336 337 336 336 334 338 339 340
317 318 319 319 320 321 323 325 327 328 330 330 330 329 329 329 334 335 333 336 335 335 334 334 337 342 340 339 344 347 351 349 346 347 347 347 344 341 342 340 336 339 338 337 337 335 336 339 342
313 315 318 319 319 320 320 323 324 325 328 330 330 331 331 330 331 330 332 335 335 335 335 334 334 338 339 340 345 348 345 345 344 346 344 349 348 345 342 342 341 338 338 337 337 339 339 337 338
313 312 313 315 319 319 320 322 324 325 326 328 330 331 331 332 333 333 332 334 334 332 332 334 337 334 341 343 346 348 348 342 342 344 344 346 350 347 346 345 342 342 340 338 337 336 336 336 339
313 313 313 313 315 317 319 321 323 323 322 326 327 329 332 332 333 334 333 334 333 333 334 334 335 335 335 339 343 341 340 339 340 342 343 345 347 351 346 347 344 343 340 340 338 337 336 336 338
315 315 315 315 315 316 317 319 321 324 323 323 325 327 330 332 333 333 333 335 334 335 332 334 336 337 335 340 340 338 338 338 339 342 344 346 348 349 349 346 347 342 344 340 339 337 337 337 335
313 314 314 314 314 315 316 316 319 322 322 325 325 325 327 329 333 331 331 334 333 335 334 334 334 333 333 335 336 336 337 337 338 342 346 346 349 348 348 348 346 344 345 340 339 339 338 336 336
313 313 313 314 314 314 314 316 319 319 322 323 324 326 327 327 328 332 335 335 333 335 331 332 334 331 329 332 338 340 335 335 340 346 347 347 348 348 348 346 345 346 344 342 341 338 337 338 337
312 312 312 312 313 314 314 316 318 319 321 323 323 324 326 327 329 329 333 337 335 333 333 333 333 333 334 337 344 342 342 343 342 345 349 349 348 348 348 346 345 347 343 344 340 339 337 338 339
314 313 313 313 315 314 313 314 315 316 319 321 324 324 325 327 328 328 329 331 329 328 329 329 329 334 335 338 339 342 344 344 345 349 349 350 348 347 345 344 344 345 342 343 340 339 339 340 338
314 313 313 314 315 316 314 314 315 316 318 319 322 324 325 326 325 326 327 327 327 328 329 330 330 330 336 337 343 341 339 342 349 347 351 348 345 344 344 343 343 343 342 344 340 340 340 338 337
312 314 321 315 315 317 314 314 316 316 316 318 319 322 324 325 326 327 327 328 329 327 326 328 332 339 338 341 346 341 335 346 352 351 349 346 344 343 344 345 343 344 342 343 341 339 339 338 337
313 313 317 322 315 314 312 312 315 317 318 318 319 322 323 324 324 326 326 328 327 327 327 328 331 334 337 342 341 344 341 351 355 349 346 344 344 344 345 344 344 344 341 342 340 339 338 338 335
313 314 316 320 317 318 313 312 312 315 317 318 319 321 324 324 326 327 328 334 335 330 333 329 333 334 334 336 344 348 351 353 352 350 345 345 347 347 343 346 342 343 339 340 338 338 337 335 334
315 315 316 317 317 318 314 312 312 317 321 318 319 322 323 325 325 326 328 331 334 333 331 333 337 343 348 348 350 352 354 352 352 351 349 349 349 348 346 344 341 340 340 338 338 334 334 334 333
313 314 316 319 318 317 314 314 317 319 321 320 319 321 324 323 325 331 334 343 341 336 335 342 343 348 348 350 351 352 352 353 352 350 348 348 346 345 343 341 339 339 338 336 335 335 334 333 332
314 316 317 321 317 316 317 318 317 317 317 318 316 323 323 324 324 338 339 340 343 343 342 344 348 349 351 351 352 352 351 350 347 345 343 342 341 339 338 338 337 337 335 333 333 333 335 334 334
Wind_Speed
10 10 11 13 6 7 16 19 20 22 7 13 14 3 7 12 15 5 27 24 33 32 28 26 22 22 21 20 19 18 17 16 15 14 13 12 11 10 9 8 7 6 4 4 3 3 2 2 2
9 10 13 6 8 12 14 20 22 20 5 5 6 2 4 8 17 17 18 34 29 33 28 27 26 23 23 22 20 18 17 17 16 15 14 13 12 11 10 9 8 7 6 6 5 4 3 3 2
11 14 7 6 13 16 17 19 15 9 5 5 2 5 5 6 17 20 24 33 31 30 29 28 26 23 23 22 21 20 19 19 18 17 16 15 13 12 11 10 9 9 8 8 7 6 4 4 2
9 8 6 10 19 19 25 24 25 14 11 5 10 9 5 11 5 17 27 30 26 24 27 28 28 26 24 23 22 22 21 21 20 19 18 17 16 14 14 12 11 10 10 9 8 8 6 5 4
17 7 11 15 19 21 23 22 15 11 8 11 13 6 10 6 16 28 28 28 29 26 23 26 29 27 26 24 24 23 22 22 22 21 21 20 18 18 17 15 14 12 11 10 10 9 8 7 7
3 5 13 15 21 22 20 21 20 11 12 6 15 13 9 16 13 22 27 26 25 28 25 22 26 29 28 26 25 24 24 24 24 24 23 22 21 20 19 18 16 15 14 13 12 12 11 10 9
15 10 13 19 18 24 23 22 23 10 14 18 11 11 8 15 18 26 26 27 26 29 24 20 25 28 28 27 27 27 26 26 25 25 24 24 22 22 21 19 18 17 17 16 15 15 13 12 10
11 10 20 20 18 22 21 19 20 15 16 15 16 7 10 4 21 30 27 27 27 29 23 19 20 27 32 30 29 28 27 26 26 26 26 25 24 24 23 22 21 20 19 19 18 18 16 13 11
20 15 17 23 22 19 18 17 15 14 18 20 19 9 2 13 24 27 26 26 26 29 28 20 20 19 24 26 27 29 28 27 27 28 28 27 26 25 25 25 24 24 22 22 20 19 17 15 14
19 17 26 23 19 17 18 19 16 14 18 16 18 12 7 6 12 12 13 18 22 27 30 26 22 22 21 21 21 22 29 29 31 31 31 31 29 25 24 25 25 25 24 24 22 21 20 18 15
23 26 25 27 25 20 21 20 17 18 21 20 16 18 14 8 14 15 18 21 23 25 29 33 28 25 23 22 25 25 23 26 29 30 30 29 29 27 26 24 27 27 26 25 24 23 23 19 17
26 30 28 29 26 26 26 22 19 17 21 24 23 18 13 14 11 15 17 24 22 26 29 31 28 28 26 22 26 24 22 24 26 29 31 31 28 28 28 27 25 31 26 28 23 24 22 21 22
29 28 28 27 26 26 27 29 27 18 21 24 25 25 16 18 11 13 14 10 6 22 18 15 42 32 27 26 20 25 26 26 28 28 29 33 32 30 28 28 28 26 30 27 28 25 24 25 24
22 26 28 28 27 23 27 28 24 27 20 21 22 22 21 12 9 14 16 13 8 6 10 4 21 19 19 20 27 22 27 26 28 28 30 34 36 30 31 31 27 27 30 28 29 29 28 30 27
21 26 24 28 24 26 23 27 30 26 24 24 21 20 22 19 17 23 21 19 16 12 11 12 3 16 18 20 24 30 24 24 27 24 28 33 36 35 31 29 34 28 25 28 27 29 29 24 24
20 20 21 23 25 27 21 29 30 25 22 22 24 21 20 20 18 21 20 18 17 15 14 16 16 10 19 22 23 23 24 24 25 25 25 27 33 33 33 28 27 31 28 26 27 25 24 24 21
16 20 24 25 24 21 24 32 27 22 21 22 21 22 22 22 20 23 28 25 17 20 22 19 18 20 13 25 22 23 25 25 24 23 25 24 29 34 29 28 27 26 27 29 24 24 22 20 19
17 20 20 25 24 24 26 30 28 25 26 22 22 21 21 24 24 24 29 29 28 25 21 20 20 18 17 13 21 21 20 22 25 25 23 23 26 29 35 25 27 24 28 25 25 25 20 22 14
20 21 24 25 24 26 22 25 28 22 26 26 23 18 21 25 16 22 29 35 37 27 22 20 19 18 19 17 20 22 21 24 24 24 23 22 24 27 26 30 23 29 24 25 23 23 23 16 17
19 22 26 25 23 22 24 29 28 22 22 21 24 22 23 19 18 24 25 19 16 21 21 22 24 23 23 26 31 26 23 22 26 23 22 22 21 24 24 25 24 27 21 24 22 22 16 15 18
20 21 22 24 21 21 25 27 25 27 24 21 20 19 22 22 21 16 14 12 15 18 23 24 25 28 30 33 28 27 26 26 17 19 21 21 21 21 23 26 25 23 24 21 21 20 18 15 19
19 19 21 22 20 15 17 17 22 22 25 22 22 24 20 15 15 16 14 9 10 13 18 21 26 31 33 32 27 26 21 16 18 16 18 19 18 20 22 23 26 19 26 19 25 18 20 20 9
22 22 23 23 21 22 24 15 18 21 25 21 22 24 24 17 19 20 17 13 20 25 26 30 32 31 34 34 33 28 21 20 16 15 14 16 21 22 22 23 24 20 19 20 22 22 23 18 14
19 21 24 23 18 19 24 21 20 20 22 25 22 21 22 22 25 21 19 27 28 30 31 30 34 38 36 33 32 28 23 24 18 18 17 16 21 22 22 23 24 20 22 18 21 20 17 12 12
15 14 11 16 15 17 23 22 18 24 23 25 27 22 20 15 16 13 17 17 16 19 25 23 24 26 30 31 28 32 33 26 20 23 20 18 20 22 23 25 25 22 20 16 15 16 14 11 11
16 16 7 13 15 16 19 17 13 22 23 23 26 22 23 9 15 17 9 10 15 22 23 25 21 21 23 25 26 24 26 24 20 24 21 21 21 24 25 26 24 20 17 15 13 12 11 10 11
17 15 14 11 22 19 18 24 14 21 24 23 25 25 10 11 13 9 9 6 6 11 10 24 19 21 21 22 23 23 25 23 25 22 23 26 24 23 28 23 23 17 15 13 11 10 11 11 12
24 17 15 7 6 16 16 17 14 13 23 18 23 17 17 16 8 7 11 12 14 18 13 22 20 20 20 19 21 22 23 20 23 23 28 26 23 24 24 21 18 14 13 11 11 11 12 13 14
14 16 9 5 5 6 12 11 11 17 21 26 29 22 10 3 9 10 7 5 7 6 12 13 14 18 19 21 22 23 22 21 25 26 22 25 24 24 20 17 14 11 10 10 12 7 10 13 13
9 15 5 8 10 11 13 19 15 21 26 27 29 8 12 7 11 4 11 8 8 9 16 15 19 20 22 22 22 26 28 26 23 23 23 23 22 20 18 16 14 12 12 12 11 9 9 11 14
Wind_Direction
241 248 264 264 243 229 254 243 258 269 246 201 235 312 254 279 62 23 131 142 145 145 156 163 167 163 164 169 172 178 183 183 181 185 187 182 180 175 179 184 185 186 190 189 180 177 160 150 141
232 245 253 273 237 245 247 233 239 249 279 150 76 334 339 280 100 147 150 135 153 149 160 168 171 172 170 174 176 180 187 186 188 193 194 195 192 189 191 196 202 196 199 193 181 183 181 179 163
218 251 259 225 236 246 262 253 218 218 89 65 112 240 233 252 126 140 132 136 153 152 164 174 175 177 177 180 181 183 190 192 194 198 200 201 201 202 208 208 207 203 205 193 184 189 188 197 202
231 219 254 260 249 244 247 276 300 162 139 183 229 187 244 59 65 130 139 142 147 150 166 179 179 182 183 186 188 190 194 196 200 204 207 208 205 208 216 217 213 208 205 198 192 193 197 210 220
252 264 237 251 246 256 276 278 292 293 170 207 229 211 209 139 109 136 143 152 149 153 162 179 182 185 188 191 194 196 199 202 204 208 210 215 212 214 216 216 213 211 206 204 205 207 210 219 227
245 239 255 250 246 253 254 273 288 268 277 242 203 215 205 170 166 152 151 157 158 154 170 177 184 190 192 195 198 201 205 208 210 212 215 218 220 219 219 219 213 211 212 209 213 219 220 226 232
247 223 244 257 266 285 286 313 310 238 252 264 267 238 241 163 172 156 167 165 161 154 172 176 183 195 198 199 204 206 209 213 215 218 220 222 223 224 223 221 220 216 215 212 215 223 227 232 237
224 253 260 259 259 259 277 286 289 304 240 259 254 276 252 271 168 159 171 176 168 151 173 176 181 188 200 204 208 212 215 219 222 223 225 226 226 226 226 224 224 221 220 217 218 225 228 234 245
240 243 246 250 258 271 278 278 285 281 281 261 279 262 5 2 178 158 187 177 176 160 161 165 171 187 191 202 211 214 219 222 227 230 230 230 227 228 226 226 225 225 223 221 222 226 228 232 239
238 241 241 246 257 265 273 286 282 268 264 243 246 236 159 168 160 209 197 182 189 165 165 173 176 187 183 190 207 220 222 224 227 228 229 229 228 224 230 228 226 226 228 226 225 227 229 230 232
234 244 243 250 255 251 268 281 280 275 270 264 228 249 169 207 208 216 193 216 188 186 175 173 174 188 179 183 202 213 220 226 230 231 227 231 226 222 222 224 227 226 227 229 227 228 226 224 232
241 244 248 256 264 277 276 272 251 256 276 289 295 237 240 196 226 217 217 210 215 198 188 156 169 177 182 187 195 209 210 215 223 229 228 219 221 218 218 219 219 220 219 227 218 226 223 225 228
253 251 250 247 247 261 273 271 274 244 256 273 283 289 281 192 187 272 259 251 0 359 26 177 198 184 187 195 202 200 206 211 221 222 226 220 212 213 218 219 217 218 213 220 219 218 221 222 225
263 256 258 259 259 249 242 257 265 259 252 249 267 278 283 181 237 249 267 280 275 213 208 188 160 179 188 203 207 208 214 215 217 219 223 225 214 214 212 219 220 217 207 209 221 215 220 215 223
267 273 276 263 264 256 256 255 246 256 257 256 255 263 272 280 211 216 216 235 233 246 266 283 251 190 205 217 214 213 212 224 229 227 222 228 218 212 214 214 217 218 217 213 215 214 218 220 221
282 273 265 254 247 254 262 265 248 249 257 243 254 259 265 260 266 264 265 240 209 216 222 239 247 243 217 221 217 219 225 227 232 233 235 229 224 211 210 213 220 217 221 229 218 217 208 218 225
243 257 260 266 257 256 231 253 255 255 251 255 242 242 251 252 246 241 245 249 237 227 228 228 222 233 234 217 218 219 224 236 243 241 236 228 220 217 208 213 217 218 217 224 228 222 217 224 216
267 257 252 252 256 262 262 248 244 240 254 248 245 254 240 241 249 241 225 235 232 218 196 209 219 221 228 232 222 225 234 249 246 241 240 227 220 212 207 211 219 221 214 221 224 219 219 219 212
299 294 284 282 292 298 287 269 261 245 228 234 246 251 244 254 262 258 233 229 227 202 200 198 203 211 229 239 234 240 243 247 241 236 232 229 219 201 201 208 220 218 220 214 224 215 211 206 216
281 282 279 286 292 291 285 279 279 274 257 249 226 227 244 260 246 243 251 242 186 178 190 208 212 219 225 237 245 243 239 239 236 224 220 219 206 195 203 202 217 212 218 216 221 208 193 208 222
275 273 278 285 291 281 281 281 278 273 280 276 280 271 226 228 250 254 231 229 225 208 209 213 215 221 228 236 238 242 243 251 262 207 204 202 198 196 205 209 214 215 208 214 212 200 192 210 221
273 273 277 281 280 271 273 275 263 269 263 259 267 273 267 252 248 254 249 234 228 233 224 219 225 224 226 226 225 227 220 218 222 222 191 185 192 200 206 208 213 211 202 216 203 199 209 225 194
310 313 304 286 279 277 266 260 269 268 269 254 251 239 261 255 257 241 245 248 243 246 241 239 233 227 225 222 222 222 219 217 214 182 179 190 190 208 210 207 208 203 208 215 193 200 209 208 202
299 290 283 289 274 263 265 261 264 265 269 268 265 250 236 232 239 246 240 242 244 239 230 228 227 227 222 214 213 212 220 212 190 179 166 159 182 200 205 209 209 203 207 215 190 194 197 190 195
281 293 288 258 252 262 257 255 260 264 265 266 268 275 266 261 243 237 234 228 230 237 240 228 219 200 202 205 199 210 221 214 203 169 159 163 175 198 202 200 197 201 202 192 183 180 180 194 208
274 279 270 282 261 274 291 284 278 311 305 273 269 266 257 263 287 231 252 245 225 221 214 217 211 186 197 196 199 209 211 206 169 156 160 169 184 191 194 191 191 189 185 180 177 176 191 204 210
291 287 239 241 270 263 275 286 256 259 260 268 264 257 236 260 263 253 251 265 262 236 210 189 179 182 196 203 200 195 197 188 156 161 167 176 184 181 182 183 184 180 181 180 187 186 201 207 202
267 290 294 280 302 279 261 267 272 308 346 264 255 261 249 233 225 261 249 240 241 243 211 178 176 175 174 181 182 184 183 176 169 170 170 174 173 168 176 176 177 182 177 178 188 204 212 194 196
300 259 261 10 230 261 276 273 63 354 352 334 329 247 220 226 247 244 240 355 310 195 167 140 171 157 165 170 176 167 173 165 150 159 165 166 163 160 164 165 173 176 182 195 202 186 183 202 199
192 283 256 280 292 288 287 279 18 13 351 338 333 43 292 340 290 225 262 250 251 253 137 180 156 163 162 166 149 137 136 137 135 128 129 137 141 152 168 171 177 178 188 191 196 213 215 215 207